Weather History for Port Aransas, TX

Change the Weather History Date:

Saturday, July 20, 2013

  Actual Average (KCRP) Record (KCRP)
Temperature  
Mean Temperature 84 °F 84 °F  
Max Temperature 88 °F 93 °F 101 °F (2009)
Min Temperature 79 °F 75 °F 69 °F (1986)
Degree Days  
Heating Degree Days 0 0  
Month to date heating degree days 0  
Since 1 June heating degree days 0  
Since 1 July heating degree days 0  
Cooling Degree Days 18 19  
Month to date cooling degree days 376  
Year to date cooling degree days 1739  
Since 1 June cooling degree days 898  
Growing Degree Days 34 (Base 50)    
Moisture  
Dew Point 75 °F    
Average Humidity 74    
Maximum Humidity 83    
Minimum Humidity 65    
Precipitation  
Precipitation 0.00 in 0.07 in 0.88 in (1988)
Month to date precipitation 2.11  
Year to date precipitation 15.74  
Snow  
Snow 0.00 in - - ()
Month to date snowfall  
Since 1 June snowfall  
Since 1 July snowfall  
Snow Depth -    
Sea Level Pressure  
Sea Level Pressure 29.92 in    
Wind  
Wind Speed 9 mph (SE)    
Max Wind Speed 16 mph    
Max Gust Speed 21 mph    
Visibility 10 miles    
Events      
T = Trace of Precipitation, MM = Missing Value Source: NWS Daily Summary

Daily Weather History Graph

Daily Weather History Graph

Search for Another Location

Airport:

Trip Planner

Search our weather history database for the weather conditions in past years. The results will help you decide how hot, cold, wet, or windy it might be!

Date:

Astronomy

Jul. 20, 2013 Rise Set
Actual Time 6:44 AM CDT 8:24 PM CDT
Civil Twilight 6:19 AM CDT 8:50 PM CDT
Nautical Twilight 5:47 AM CDT 9:21 PM CDT
Astronomical Twilight 5:15 AM CDT 9:53 PM CDT
Moon 6:29 PM CDT (7/20) 4:25 AM CDT (7/20)
Length of Visible Light 14h 31m
Length of Day
13h 39m
Waxing Gibbous, 94% of the Moon is Illuminated
Jul 20
Waxing Gibbous
Jul 22
Full
Jul 29
Last Quarter
Aug 6
New
Aug 14
First Quarter

Hourly Weather History & Observations

Time (CDT) Temp. Heat Index Dew Point Humidity Pressure Visibility Wind Dir Wind Speed Gust Speed Precip Events Conditions
12:15 AM 82.0 °F 88.9 °F 75.2 °F 80% 29.97 in 10.0 mi SE 10.4 mph - N/A   Scattered Clouds
12:35 AM 81.7 °F 88.0 °F 75.0 °F 80% 29.97 in 10.0 mi SSE 12.7 mph 16.1 mph N/A   Scattered Clouds
12:55 AM 81.5 °F 86.9 °F 73.6 °F 77% 29.97 in 10.0 mi SSE 8.1 mph - N/A   Scattered Clouds
1:15 AM 81.5 °F 86.9 °F 73.8 °F 77% 29.97 in 10.0 mi SSE 9.2 mph - N/A   Scattered Clouds
1:35 AM 81.5 °F 86.7 °F 73.4 °F 76% 29.96 in 10.0 mi SSE 8.1 mph - N/A   Scattered Clouds
1:55 AM 81.5 °F 86.7 °F 73.4 °F 76% 29.96 in 10.0 mi South 10.4 mph - N/A   Scattered Clouds
2:15 AM 81.1 °F 86.4 °F 73.6 °F 78% 29.95 in 10.0 mi SSE 8.1 mph - N/A   Scattered Clouds
2:35 AM 81.1 °F 86.4 °F 73.8 °F 78% 29.95 in 10.0 mi SSE 9.2 mph - N/A   Scattered Clouds
2:55 AM 81.0 °F 86.2 °F 73.8 °F 79% 29.94 in 10.0 mi SSE 8.1 mph - N/A   Scattered Clouds
3:15 AM 80.6 °F 85.4 °F 73.6 °F 79% 29.93 in 10.0 mi SSE 5.8 mph - N/A   Clear
3:35 AM 80.6 °F 85.5 °F 73.9 °F 80% 29.93 in 10.0 mi SSE 9.2 mph - N/A   Clear
3:55 AM 80.2 °F 84.9 °F 73.8 °F 81% 29.93 in 10.0 mi SSE 8.1 mph - N/A   Scattered Clouds
4:15 AM 80.2 °F 84.9 °F 73.8 °F 81% 29.93 in 10.0 mi SSE 8.1 mph - N/A   Clear
4:35 AM 79.9 °F - 73.8 °F 81% 29.92 in 10.0 mi SSE 4.6 mph - N/A   Scattered Clouds
4:55 AM 80.2 °F 84.9 °F 73.8 °F 81% 29.92 in 10.0 mi SE 6.9 mph - N/A   Mostly Cloudy
5:15 AM 80.4 °F 85.1 °F 73.6 °F 80% 29.92 in 10.0 mi SSE 8.1 mph - N/A   Mostly Cloudy
5:35 AM 80.2 °F 84.7 °F 73.4 °F 80% 29.93 in 10.0 mi SSE 6.9 mph - N/A   Scattered Clouds
5:55 AM 80.4 °F 85.1 °F 73.6 °F 80% 29.93 in 10.0 mi SE 5.8 mph - N/A   Scattered Clouds
6:15 AM 80.6 °F 85.4 °F 73.4 °F 79% 29.93 in 10.0 mi SE 6.9 mph - N/A   Scattered Clouds
6:35 AM 80.8 °F 85.8 °F 73.6 °F 79% 29.93 in 10.0 mi SE 8.1 mph - N/A   Scattered Clouds
6:55 AM 80.8 °F 85.9 °F 73.9 °F 80% 29.93 in 10.0 mi SE 8.1 mph - N/A   Scattered Clouds
7:15 AM 80.8 °F 85.6 °F 73.4 °F 78% 29.94 in 10.0 mi SE 8.1 mph - N/A   Scattered Clouds
7:35 AM 81.7 °F 87.1 °F 73.4 °F 76% 29.94 in 10.0 mi SE 6.9 mph - N/A   Scattered Clouds
7:55 AM 82.8 °F 89.0 °F 73.6 °F 74% 29.95 in 10.0 mi SE 6.9 mph - N/A   Scattered Clouds
8:15 AM 83.3 °F 89.9 °F 73.9 °F 73% 29.95 in 10.0 mi SE 6.9 mph - N/A   Mostly Cloudy
8:35 AM 83.3 °F 89.6 °F 73.6 °F 72% 29.95 in 10.0 mi SE 6.9 mph - N/A   Scattered Clouds
8:55 AM 84.4 °F 91.3 °F 73.8 °F 70% 29.95 in 10.0 mi ESE 6.9 mph - N/A   Scattered Clouds
9:15 AM 84.7 °F 92.1 °F 73.9 °F 70% 29.95 in 10.0 mi SSE 4.6 mph - N/A   Scattered Clouds
9:35 AM 84.7 °F 92.5 °F 74.3 °F 71% 29.95 in 10.0 mi SE 6.9 mph - N/A   Scattered Clouds
9:55 AM 84.9 °F 92.9 °F 74.7 °F 71% 29.95 in 10.0 mi SE 5.8 mph - N/A   Clear
10:15 AM 85.3 °F 93.0 °F 74.1 °F 69% 29.95 in 10.0 mi SSE 8.1 mph - N/A   Clear
10:35 AM 85.8 °F 93.8 °F 74.3 °F 68% 29.95 in 10.0 mi SE 5.8 mph - N/A   Scattered Clouds
10:55 AM 86.4 °F 94.6 °F 74.3 °F 67% 29.95 in 10.0 mi SE 8.1 mph - N/A   Scattered Clouds
11:15 AM 86.5 °F 95.0 °F 74.5 °F 67% 29.95 in 10.0 mi SE 6.9 mph - N/A   Clear
11:35 AM 86.0 °F 94.2 °F 74.3 °F 68% 29.95 in 10.0 mi SE 9.2 mph - N/A   Clear
11:55 AM 86.0 °F 94.2 °F 74.3 °F 68% 29.95 in 10.0 mi SE 9.2 mph - N/A   Scattered Clouds
12:15 PM 86.5 °F 95.0 °F 74.5 °F 67% 29.95 in 10.0 mi SE 11.5 mph - N/A   Scattered Clouds
12:35 PM 87.1 °F 95.9 °F 74.7 °F 66% 29.95 in 10.0 mi SE 9.2 mph - N/A   Scattered Clouds
12:55 PM 86.9 °F 95.9 °F 74.8 °F 67% 29.94 in 10.0 mi SE 8.1 mph - N/A   Scattered Clouds
1:15 PM 87.3 °F 96.8 °F 75.2 °F 67% 29.94 in 10.0 mi SE 9.2 mph - N/A   Scattered Clouds
1:35 PM 87.3 °F 97.2 °F 75.4 °F 68% 29.94 in 10.0 mi ESE 9.2 mph - N/A   Scattered Clouds
1:55 PM 87.8 °F 97.6 °F 75.2 °F 66% 29.93 in 10.0 mi SE 8.1 mph - N/A   Scattered Clouds
2:15 PM 87.4 °F 97.2 °F 75.4 °F 67% 29.93 in 10.0 mi SE 9.2 mph - N/A   Scattered Clouds
2:35 PM 88.2 °F 99.0 °F 75.7 °F 67% 29.92 in 10.0 mi ESE 12.7 mph - N/A   Scattered Clouds
2:55 PM 87.6 °F 97.1 °F 75.2 °F 66% 29.91 in 10.0 mi SE 11.5 mph - N/A   Scattered Clouds
3:15 PM 88.3 °F 99.5 °F 75.9 °F 67% 29.91 in 10.0 mi SE 11.5 mph - N/A   Scattered Clouds
3:35 PM 86.5 °F 95.9 °F 75.2 °F 69% 29.91 in 10.0 mi ESE 9.2 mph - N/A   Scattered Clouds
3:55 PM 85.3 °F 93.4 °F 74.7 °F 70% 29.90 in 10.0 mi ESE 9.2 mph - N/A   Clear
4:15 PM 85.5 °F 93.8 °F 74.8 °F 70% 29.90 in 10.0 mi SE 12.7 mph - N/A   Clear
4:35 PM 86.9 °F 95.9 °F 74.8 °F 67% 29.89 in 10.0 mi SE 9.2 mph - N/A   Clear
4:55 PM 87.3 °F 95.8 °F 74.3 °F 65% 29.88 in 10.0 mi ESE 9.2 mph - N/A   Clear
5:15 PM 85.6 °F 94.2 °F 74.7 °F 70% 29.88 in 10.0 mi ESE 12.7 mph - N/A   Clear
5:35 PM 84.7 °F 93.2 °F 75.2 °F 73% 29.88 in 10.0 mi SE 11.5 mph - N/A   Scattered Clouds
5:55 PM 84.4 °F 92.0 °F 74.3 °F 72% 29.88 in 10.0 mi SE 10.4 mph - N/A   Scattered Clouds
6:15 PM 84.6 °F 92.4 °F 74.7 °F 72% 29.87 in 10.0 mi SE 8.1 mph - N/A   Clear
6:35 PM 85.1 °F 92.9 °F 74.5 °F 70% 29.87 in 10.0 mi SE 11.5 mph 16.1 mph N/A   Scattered Clouds
6:55 PM 84.6 °F 92.1 °F 74.3 °F 71% 29.87 in 10.0 mi SE 12.7 mph 17.3 mph N/A   Clear
7:15 PM 83.8 °F 91.8 °F 75.0 °F 75% 29.88 in 10.0 mi SE 9.2 mph - N/A   Scattered Clouds
7:35 PM 83.5 °F 91.2 °F 75.2 °F 76% 29.88 in 10.0 mi SE 10.4 mph - N/A   Scattered Clouds
7:55 PM 83.3 °F 90.8 °F 75.2 °F 76% 29.87 in 10.0 mi SE 10.4 mph 16.1 mph N/A   Scattered Clouds
8:15 PM 82.8 °F 90.1 °F 75.4 °F 78% 29.88 in 10.0 mi SSE 10.4 mph - N/A   Scattered Clouds
8:35 PM 82.4 °F 89.2 °F 74.8 °F 78% 29.87 in 10.0 mi SE 9.2 mph - N/A   Mostly Cloudy
8:55 PM 82.0 °F 88.6 °F 75.0 °F 79% 29.87 in 10.0 mi SE 13.8 mph 17.3 mph N/A   Scattered Clouds
9:15 PM 81.7 °F 88.3 °F 75.4 °F 81% 29.87 in 10.0 mi SSE 10.4 mph - N/A   Scattered Clouds
9:35 PM 81.9 °F 88.5 °F 75.2 °F 80% 29.88 in 10.0 mi SSE 12.7 mph - N/A   Mostly Cloudy
9:55 PM 81.9 °F 88.9 °F 75.7 °F 82% 29.89 in 10.0 mi SSE 16.1 mph 20.7 mph N/A   Mostly Cloudy
10:15 PM 81.7 °F 88.5 °F 75.6 °F 82% 29.90 in 10.0 mi SSE 13.8 mph 19.6 mph N/A   Scattered Clouds
10:35 PM 81.9 °F 88.9 °F 75.7 °F 82% 29.91 in 10.0 mi SSE 11.5 mph - N/A   Mostly Cloudy
10:55 PM 81.9 °F 89.2 °F 76.1 °F 83% 29.92 in 10.0 mi SSE 13.8 mph 18.4 mph N/A   Mostly Cloudy
11:15 PM 82.2 °F 89.6 °F 75.7 °F 81% 29.93 in 10.0 mi SSE 13.8 mph - N/A   Mostly Cloudy
11:35 PM 82.0 °F 89.4 °F 76.1 °F 82% 29.93 in 10.0 mi South 13.8 mph - N/A   Scattered Clouds
11:55 PM 82.4 °F 90.6 °F 76.6 °F 83% 29.93 in 10.0 mi South 10.4 mph 18.4 mph N/A   Mostly Cloudy